sat.trackr.live / text

‹ back to catalog

ECHOSTAR 10

NORAD 28935 · 2006-003A

PAYLOAD ACTIVE UNKNOWN

§ Identity

Operator
Country
US
Launch date
2006-02-15
Launch site
SEAL
Launch vehicle
Mass (kg)
RCS (m²)
22.71

Purposes: comms

External: N2YO · Heavens-Above · Gunter

§ Orbital elements

Epoch: 2026-09-13T01:21:16.689024Z

Period
1,436.10 min
Inclination
0.0560°
Eccentricity
0.0002100
Mean motion
1.00271876 rev/d
Perigee alt
35,777.7 km
Apogee alt
35,795.4 km
Semi-major
42,164.7 km
B*
0.0000e+0
RAAN
312.5899°
Arg perigee
176.1374°
Mean anomaly
133.4622°
Rev number
7,534

§ Raw data

ECHOSTAR 101 28935U 06003A   26256.05644316 -.00000068  00000+0  00000+0 0  99992 28935   0.0560 312.5899 0002100 176.1374 133.4622  1.00271876 75341

JSON: /api/v1/satellites/28935 · /tle

For live sub-satellite position, see the globe view (requires WebGL).

§ Visibility from observer

Set your observer location to see the next 7 days of passes ≥ 10°. The values pass through the URL so the page stays shareable.

No JS? Fill the form by hand. The geolocation button needs JavaScript.